2007/        α  (2000) δ      △      r       Daily motion  Elong. Phase    m1   天文薄明開始時

 28h JST    h  m       。  ,        AU      AU      。      。      等     h。    A 。 

Apr.  5   20 08.42  -33 24.3    0.701   1.104    92.3/340    78.7   62.8    9.2    +9.4  323.5

      6   20 05.97  -31 57.3    0.680   1.106    98.2/340    79.8   62.9    9.1   +11.2  323.5

      7   20 03.42  -30 24.8    0.659   1.109   104.4/340    80.9   63.1    9.0   +13.1  323.5

      8   20 00.76  -28 46.3    0.639   1.111   111.2/341    82.1   63.2    9.0   +15.0  323.5

      9   19 57.99  -27 01.3    0.619   1.115   118.5/341    83.3   63.2    8.9   +17.1  323.5

     10   19 55.10  -25 09.4    0.600   1.118   126.2/341    84.5   63.1    8.9   +19.3  323.5

     11   19 52.09  -23 10.1    0.582   1.121   134.4/341    85.8   63.0    8.8   +21.7  323.5

     12   19 48.94  -21 03.1    0.564   1.125   143.0/341    87.1   62.8    8.8   +24.1  323.4

     13   19 45.65  -18 47.8    0.547   1.129   152.0/341    88.4   62.6    8.7   +26.8  323.4

     14   19 42.21  -16 24.0    0.531   1.133   161.3/341    89.8   62.3    8.7   +29.5  323.4

     15   19 38.62  -13 51.3    0.516   1.138   170.8/341    91.2   61.8    8.6   +32.4  323.3

     16   19 34.85  -11 09.6    0.502   1.142   180.3/341    92.6   61.3    8.6   +35.5  323.3

     17   19 30.91  -08 19.0    0.489   1.147   189.5/341    94.0   60.8    8.5   +38.8  323.2

     18   19 26.78  -05 19.7    0.478   1.152   198.4/341    95.5   60.2    8.5   +42.2  323.1

     19   19 22.46  -02 12.2    0.468   1.158   206.5/341    96.9   59.5    8.5   +45.7  323.0

     20   19 17.93  +01 02.8    0.459   1.163   213.6/341    98.3   58.8    8.5   +49.4  322.9

     21   19 13.19  +04 24.2    0.452   1.169   219.4/340    99.6   58.0    8.5   +53.2  322.7

     22   19 08.22  +07 50.7    0.447   1.174   223.7/340   100.8   57.2    8.5   +57.1  322.5

     23   19 03.01  +11 20.7    0.444   1.180   226.1/340   102.0   56.4    8.5   +61.1  322.2

     24   18 57.56  +14 52.4    0.442   1.187   226.7/339   103.0   55.7    8.5   +65.1  321.8

     25   18 51.86  +18 23.8    0.443   1.193   225.4/338   104.0   54.9    8.5   +69.1  321.3

     26   18 45.90  +21 52.9    0.445   1.200   222.2/338   104.8   54.2    8.5   +73.1  320.5

     27   18 39.67  +25 17.9    0.449   1.206   217.2/337   105.4   53.6    8.6   +77.0  319.2

     28   18 33.17  +28 37.0    0.455   1.213   210.8/336   105.9   53.0    8.6   +80.9  316.9

     29   18 26.40  +31 48.7    0.463   1.220   203.2/335   106.2   52.4    8.7   +84.6  311.5

     30   18 19.35  +34 51.7    0.472   1.227   194.6/333   106.4   51.9    8.8   +87.9  287.3

May   1   18 12.02  +37 45.0    0.483   1.235   185.4/332   106.5   51.5    8.8   +87.7  178.8

                    m1 =  9.5 + 5 log △ + 10.0 log r

NAKANO

         **** Don't distribute anyone except personal use only ****

                (C) Copyright 2007 OAA/ComputingSection

write mail from CFAD0::NAKANO on 2007-04-06 02:27:22(JST).

 

 すでに一部の方には予報を送りましたが,この彗星は,4月中旬以後に7等級

まで明るくなるでしょう.北半球では,3月25日くらいには観測可能となります.



    C/2007 E2 (Lovejoy)

T 2007 Mar. 27.46541 TT                                 Nakano

q   1.0944260            (2000.0)            P               Q

                   Peri.  340.44856     -0.54564790     -0.27872802

                   Node   232.59366     -0.57313518     -0.56389872

e   1.0            Incl.   95.78408     -0.61137913     +0.77738596

From 34 observations 2007 Mar. 15-18.

Residuals in seconds of arc 

2007/                     070318 844  0.6+  0.6+    070318 E94  0.3-  0.4+  

070315 E27  1.7+  0.6-    070318 844  0.7+  0.7+    070318 E16  0.2-  1.1-  

070315 E27  0.9+  1.8+    070318 844  0.4+  0.4+    070318 E94  0.1+  0.1+  

070316 E27  2.2-  1.8+    070318 844  0.5+  0.6+    070318 E16  0.2-  2.0-  

070316 E27  0.1-  2.4-    070318 844  0.8+  0.7+    070318 E94  0.3+  0.7-  

070316 E27  1.1-  1.8-    070318 844  0.6+  0.5+    070318 E94  0.5-  0.5+  

070317 E27 (4.2-  1.9-)   070318 F85  0.3-  0.1+    070318 E12  0.1-  0.5+  

070317 E27  2.7-  1.3-    070318 F85  0.7-  0.5-    070318 E12  0.2-  0.4+  

070317 E27 (4.9-  2.8-)   070318 474  0.1+  0.2+    070318 E12  0.4-  0.3+  

070318 844  0.1+  0.5+    070318 474  0.2+  0.6+    070318 E16  0.9+  1.1-  

070318 844  0.3+  0.5+    070318 474  0.2+  0.1+    070318 E16  0.1-  1.8-  

070318 844  0.3+  0.5+    070318 E94  0.2+  0.5+                            

070318 844  0.0   0.5+    070318 E94  0.2+  0.6+                            



2007/        α  (2000) δ      △      r    Daily motion  Elong. Phase    m1  

 天文薄明開始時

 28h JST    h  m       。  ,        AU      AU      ,     。     。      。      等 

    h。    A 。 

Mar. 20   20 37.62  -48 21.8    1.055   1.100    40.6/340    64.8   55.0    9.0 

  -10.1  323.6

     21   20 36.23  -47 43.6    1.033   1.098    42.3/340    65.5   55.6    9.0 

   -9.2  323.6

     22   20 34.78  -47 03.9    1.011   1.097    44.2/340    66.2   56.2    8.9 

   -8.3  323.6

     23   20 33.29  -46 22.5    0.989   1.096    46.2/340    67.0   56.8    8.9 

   -7.3  323.6

     24   20 31.76  -45 39.2    0.967   1.095    48.3/340    67.8   57.4    8.8 

   -6.3  323.6

     25   20 30.17  -44 53.9    0.945   1.095    50.6/340    68.6   58.0    8.8 

   -5.3  323.6

     26   20 28.52  -44 06.4    0.923   1.094    53.1/340    69.4   58.5    8.7 

   -4.2  323.6

     27   20 26.83  -43 16.7    0.901   1.094    55.7/340    70.2   59.1    8.7 

   -3.1  323.6

     28   20 25.07  -42 24.4    0.878   1.095    58.6/340    71.0   59.6    8.6 

   -2.0  323.6

     29   20 23.25  -41 29.4    0.856   1.095    61.7/340    71.9   60.1    8.6 

   -0.7  323.6

     30   20 21.37  -40 31.5    0.834   1.096    65.1/340    72.8   60.5    8.5 

   +0.5  323.6

     31   20 19.42  -39 30.4    0.812   1.097    68.7/340    73.7   61.0    8.4 

   +1.8  323.6

Apr.  1   20 17.40  -38 25.9    0.790   1.098    72.6/340    74.7   61.4    8.4 

   +3.2  323.6

      2   20 15.30  -37 17.6    0.768   1.099    76.9/340    75.6   61.7    8.3 

   +4.6  323.6

      3   20 13.12  -36 05.4    0.747   1.101    81.4/340    76.6   62.1    8.3 

   +6.1  323.6

      4   20 10.86  -34 48.7    0.725   1.103    86.4/340    77.7   62.4    8.2 

   +7.7  323.5

      5   20 08.51  -33 27.4    0.704   1.105    91.7/340    78.7   62.6    8.2 

   +9.4  323.5

      6   20 06.07  -32 01.0    0.683   1.107    97.5/340    79.8   62.8    8.1 

  +11.1  323.5

      7   20 03.53  -30 29.1    0.663   1.110   103.7/340    80.9   62.9    8.1 

  +13.0  323.5

      8   20 00.88  -28 51.3    0.643   1.113   110.4/341    82.1   63.0    8.0 

  +15.0  323.5

      9   19 58.12  -27 07.1    0.623   1.116   117.5/341    83.3   63.0    7.9 

  +17.0  323.5

     10   19 55.25  -25 16.2    0.604   1.119   125.1/341    84.5   63.0    7.9 

  +19.2  323.5

     11   19 52.25  -23 18.0    0.585   1.123   133.2/341    85.8   62.9    7.8 

  +21.5  323.5

     12   19 49.12  -21 12.1    0.568   1.127   141.7/341    87.1   62.7    7.8 

  +24.0  323.5

     13   19 45.85  -18 58.1    0.551   1.131   150.6/341    88.4   62.4    7.7 

  +26.6  323.5

     14   19 42.43  -16 35.6    0.534   1.135   159.7/341    89.8   62.1    7.7 

  +29.3  323.4

     15   19 38.85  -14 04.5    0.519   1.139   169.1/341    91.2   61.7    7.6 

  +32.2  323.4

     16   19 35.11  -11 24.5    0.505   1.144   178.4/341    92.6   61.2    7.6 

  +35.3  323.3

     17   19 31.20  -08 35.7    0.492   1.149   187.6/341    94.0   60.7    7.6 

  +38.5  323.3

     18   19 27.10  -05 38.3    0.481   1.154   196.4/341    95.4   60.0    7.5 

  +41.9  323.2

     19   19 22.81  -02 32.7    0.471   1.159   204.4/341    96.9   59.4    7.5 

  +45.4  323.1

     20   19 18.31  +00 40.3    0.462   1.164   211.6/341    98.2   58.6    7.5 

  +49.0  323.0

     21   19 13.60  +03 59.7    0.455   1.170   217.4/340    99.6   57.9    7.5 

  +52.8  322.9

     22   19 08.67  +07 24.3    0.450   1.176   221.8/340   100.8   57.1    7.5 

  +56.6  322.7

     23   19 03.51  +10 52.5    0.446   1.182   224.4/340   102.0   56.3    7.5 

  +60.6  322.5

     24   18 58.11  +14 22.6    0.445   1.188   225.2/339   103.1   55.5    7.5 

  +64.6  322.2

     25   18 52.46  +17 52.6    0.445   1.194   224.1/338   104.0   54.8    7.5 

  +68.6  321.7

     26   18 46.55  +21 20.6    0.447   1.201   221.2/338   104.8   54.1    7.5 

  +72.5  321.1

     27   18 40.39  +24 44.8    0.451   1.208   216.6/337   105.5   53.4    7.6 

  +76.5  320.1

     28   18 33.95  +28 03.3    0.456   1.215   210.4/336   106.0   52.8    7.6 

  +80.3  318.2

     29   18 27.25  +31 14.7    0.464   1.222   203.0/335   106.3   52.3    7.7 

  +84.0  314.2

     30   18 20.27  +34 17.7    0.473   1.229   194.7/334   106.6   51.8    7.8 

  +87.5  298.4

May   1   18 13.02  +37 11.4    0.483   1.236   185.7/332   106.6   51.4    7.8 

  +88.3  185.2

                    m1 =  8.5 + 5 log △ + 10.0 log r

NAKANO

         **** Don't distribute anyone except personal use only ****

                (C) Copyright 2007 OAA/ComputingSection

write mail from CFAD0::NAKANO on 2007-03-20 00:35:49(JST).





戻ります。